Tracking 30289 objects as of 29-Apr-2025
HD Live streaming from Space Station
objects crossing your sky now

ARIANE 5 R/B

Track ARIANE 5 R/B now!


NORAD ID: 40876
Int'l Code: 2015-039C
Perigee: 261.2 km
Apogee: 32,392.3 km
Inclination: 5.5 °
Period: 567.2 minutes
Semi major axis: 22697 km
RCS: Unknown
Launch date: August 20, 2015
Source: France (FR)
Launch site: FRENCH GUIANA (FRGUI)

Note: This is a ROCKET BODY
Your satellite tracking list
Your tracking list is empty




NASA's NSSDC Master Catalog

Two Line Element Set (TLE):
1 40876U 15039C   25118.79108922  .00006372  00000-0  16517-2 0  9998
2 40876   5.5015 348.1135 7078054  18.4635 357.8842  2.53880258 84309
Source of the keplerian elements: AFSPC